Anoka County, MN

1:46 AM CST on December 14, 2019 (GMT -0600)
Anoka County / Blaine Airport

Weather History for KANE - November, 2019

Change the Weather History Date:

Thursday, November 14, 2019

  Actual Average Record
Temperature  
Mean Temperature 26 °F -  
Max Temperature 32 °F 39 °F 64 °F (2001)
Min Temperature 19 °F 25 °F 5 °F (1996)
Degree Days  
Heating Degree Days 40    
Moisture  
Dew Point 18 °F    
Average Humidity 71    
Maximum Humidity 86    
Minimum Humidity 55    
Precipitation  
Precipitation 0.00 in - - ()
Sea Level Pressure  
Sea Level Pressure 30.16 in    
Wind  
Wind Speed 7 mph (WNW)    
Max Wind Speed 14 mph    
Max Gust Speed 18 mph    
Visibility 10 miles    
Events      
Averages and records for this station are not official NWS values.
T = Trace of Precipitation, MM = Missing Value Source: NWS Daily Summary

Daily Weather History Graph

Daily Weather History Graph

Search for Another Location

Airport or City:

Astronomy

Nov. 14, 2019 Rise Set
Actual Time 7:09 AM CST 4:44 PM CST
Civil Twilight 6:37 AM CST 5:16 PM CST
Nautical Twilight 6:01 AM CST 5:52 PM CST
Astronomical Twilight 5:27 AM CST 6:26 PM CST
Moon 6:27 PM CST 9:08 AM CST
Length of Visible Light 10h 38m
Length of Day
9h 35m
Waning Gibbous, 95% of the Moon is Illuminated
Nov 14
Waning Gibbous
Nov 19
Last Quarter
Nov 26
New
Dec 4
First Quarter
Dec 11
Full

Hourly Weather History & Observations

Time (CST) Temp. Windchill Dew Point Humidity Pressure Visibility Wind Dir Wind Speed Gust Speed Precip Events Conditions
12:16 AM 28.4 °F 22.2 °F 19.4 °F 69% 30.09 in 10.0 mi North 5.8 mph - N/A   Overcast
12:35 AM 26.6 °F 21.2 °F 19.4 °F 74% 30.10 in 10.0 mi NNW 4.6 mph - N/A   Overcast
12:58 AM 28.4 °F 22.2 °F 19.4 °F 69% 30.10 in 10.0 mi NNW 5.8 mph - N/A   Overcast
1:16 AM 26.6 °F 19.1 °F 19.4 °F 74% 30.10 in 10.0 mi NNW 6.9 mph - N/A   Overcast
1:36 AM 26.6 °F 20.0 °F 17.6 °F 69% 30.11 in 10.0 mi NW 5.8 mph - N/A   Overcast
1:56 AM 26.6 °F 17.5 °F 17.6 °F 69% 30.12 in 10.0 mi NW 9.2 mph - N/A   Overcast
2:15 AM 26.6 °F 16.8 °F 17.6 °F 69% 30.12 in 10.0 mi NNW 10.4 mph - N/A   Overcast
2:19 AM 26.6 °F 16.8 °F 17.6 °F 69% 30.13 in 10.0 mi NNW 10.4 mph - N/A   Overcast
2:38 AM 24.8 °F 14.6 °F 17.6 °F 74% 30.13 in 10.0 mi NW 10.4 mph - N/A   Overcast
2:55 AM 24.8 °F 14.6 °F 15.8 °F 69% 30.14 in 10.0 mi NW 10.4 mph - N/A   Overcast
3:16 AM 24.8 °F 14.6 °F 15.8 °F 69% 30.14 in 10.0 mi NW 10.4 mph - N/A   Overcast
3:36 AM 24.8 °F 14.6 °F 15.8 °F 69% 30.15 in 10.0 mi NW 10.4 mph - N/A   Overcast
3:59 AM 24.8 °F 16.1 °F 15.8 °F 69% 30.16 in 10.0 mi NW 8.1 mph - N/A   Overcast
4:16 AM 24.8 °F 15.3 °F 15.8 °F 69% 30.16 in 10.0 mi NW 9.2 mph - N/A   Overcast
4:36 AM 24.8 °F 16.1 °F 15.8 °F 69% 30.17 in 10.0 mi WNW 8.1 mph - N/A   Overcast
4:56 AM 23.0 °F 13.9 °F 15.8 °F 74% 30.17 in 10.0 mi WNW 8.1 mph - N/A   Overcast
5:15 AM 23.0 °F 13.9 °F 15.8 °F 74% 30.18 in 10.0 mi WNW 8.1 mph - N/A   Overcast
5:19 AM 23.0 °F 13.1 °F 15.8 °F 74% 30.18 in 10.0 mi WNW 9.2 mph - N/A   Overcast
5:37 AM 23.0 °F 13.1 °F 15.8 °F 74% 30.19 in 10.0 mi NW 9.2 mph - N/A   Overcast
6:16 AM 21.2 °F 13.6 °F 12.2 °F 68% 30.19 in 10.0 mi WNW 5.8 mph - N/A   Overcast
6:36 AM 21.2 °F 12.6 °F 12.2 °F 68% 30.20 in 10.0 mi WNW 6.9 mph - N/A   Mostly Cloudy
6:55 AM 19.4 °F 11.5 °F 12.2 °F 74% 30.21 in 10.0 mi WNW 5.8 mph - N/A   Mostly Cloudy
7:50 AM 21.2 °F 12.6 °F 12.2 °F 68% 30.22 in 10.0 mi West 6.9 mph - N/A   Mostly Cloudy
8:45 AM 21.2 °F 12.6 °F 14.0 °F 74% 30.22 in 10.0 mi West 6.9 mph - N/A   Mostly Cloudy
9:45 AM 23.0 °F 11.7 °F 12.2 °F 63% 30.23 in 10.0 mi West 11.5 mph - N/A   Scattered Clouds
10:55 AM 24.8 °F 14.0 °F 12.2 °F 59% 30.23 in 10.0 mi West 11.5 mph - N/A   Scattered Clouds
11:45 AM 26.6 °F 18.2 °F 14.0 °F 59% 30.22 in 10.0 mi WSW 8.1 mph 16.1 mph N/A   Clear
12:45 PM 28.4 °F 17.5 °F 15.8 °F 59% 30.22 in 10.0 mi West 13.8 mph - N/A   Clear
1:45 PM 30.2 °F 20.8 °F 15.8 °F 55% 30.18 in 10.0 mi WSW 11.5 mph 18.4 mph N/A   Mostly Cloudy
2:45 PM 30.2 °F 22.6 °F 17.6 °F 60% 30.17 in 10.0 mi SW 8.1 mph - N/A   Overcast
3:46 PM 32.0 °F 24.2 °F 17.6 °F 55% 30.15 in 10.0 mi WSW 9.2 mph - N/A   Scattered Clouds
4:45 PM 30.2 °F 20.2 °F 19.4 °F 64% 30.14 in 10.0 mi SSW 12.7 mph - N/A   Clear
6:45 PM 30.2 °F 21.3 °F 19.4 °F 64% 30.14 in 10.0 mi SSW 10.4 mph - N/A   Clear
7:45 PM 30.2 °F 24.3 °F 21.2 °F 69% 30.15 in 10.0 mi SSW 5.8 mph - N/A   Clear
8:45 PM 26.6 °F 21.2 °F 21.2 °F 80% 30.14 in 10.0 mi South 4.6 mph - N/A   Scattered Clouds
9:19 PM 28.4 °F 24.6 °F 21.2 °F 74% 30.15 in 10.0 mi SSW 3.5 mph - N/A   Overcast
9:37 PM 28.4 °F - 23.0 °F 80% 30.15 in 10.0 mi Calm Calm - N/A   Overcast
9:55 PM 30.2 °F - 24.8 °F 80% 30.16 in 10.0 mi Calm Calm - N/A   Overcast
10:16 PM 30.2 °F - 24.8 °F 80% 30.16 in 10.0 mi Calm Calm - N/A   Overcast
10:36 PM 28.4 °F - 24.8 °F 86% 30.17 in 10.0 mi Calm Calm - N/A   Mostly Cloudy
10:58 PM 28.4 °F 24.6 °F 24.8 °F 86% 30.17 in 10.0 mi South 3.5 mph - N/A   Mostly Cloudy
11:16 PM 28.4 °F - 24.8 °F 86% 30.17 in 10.0 mi Calm Calm - N/A   Overcast
11:36 PM 28.4 °F - 24.8 °F 86% 30.18 in 10.0 mi Calm Calm - N/A   Overcast
11:56 PM 32.0 °F - 26.6 °F 80% 30.19 in 10.0 mi Calm Calm - N/A   Overcast